Wind_Speed
9 10 11 12 13 12 12 12 12 12 12 12 11 9 10 10 11 11 11 11 10 10 10 10 10 11 11 11 10 10 11 11 11 10 10 10 10 9 8 8 7 7 6 6 5 4 3 3 2 1 1 1 1 3 4 2 2 6 7 6 6 6 5 5 6 6 6 6 5 6 7 9 10 11 11 11 11 10 10 11 11 10 10 10 10
9 9 10 11 12 12 12 13 13 13 12 12 11 9 8 8 9 11 11 11 11 11 10 11 11 11 11 11 10 10 10 10 10 9 9 9 9 9 8 7 7 7 6 6 5 4 3 2 2 0 2 2 2 4 4 3 3 6 7 6 6 6 5 5 5 5 5 6 6 6 8 10 11 11 11 11 10 10 10 11 11 10 9 10 10
9 10 11 11 12 12 13 13 13 13 12 11 10 8 6 7 9 10 11 11 11 11 11 11 11 11 10 10 10 10 10 10 10 9 9 9 8 7 7 7 7 6 6 6 5 4 3 3 2 0 1 1 3 6 5 4 4 5 6 7 7 7 6 6 6 6 6 7 7 7 8 11 12 12 11 10 10 10 10 10 10 9 9 9 10
10 11 11 12 12 13 13 13 13 13 12 11 10 8 7 8 9 10 10 10 10 10 11 11 11 11 10 9 10 10 10 10 10 9 9 8 7 6 6 6 6 6 6 6 6 5 4 3 2 1 1 0 3 5 6 5 4 5 7 8 8 8 6 6 8 7 7 7 8 9 10 11 12 11 10 10 10 10 10 10 10 9 9 10 10
11 12 12 12 13 14 13 13 13 12 12 12 10 9 9 8 9 11 11 11 11 11 11 12 11 10 9 9 10 10 10 10 9 9 8 7 7 5 5 5 6 6 6 6 6 5 4 3 2 2 1 1 2 3 6 6 6 7 8 9 9 9 6 7 9 9 9 9 10 11 11 12 12 11 10 10 10 10 10 9 9 9 10 10 10
12 12 12 13 14 14 14 13 12 12 12 12 11 11 10 9 10 11 11 12 12 12 12 12 11 10 10 9 9 9 8 9 8 8 7 6 6 5 4 4 5 5 5 5 6 5 4 3 3 2 1 1 1 2 5 7 7 7 8 9 9 10 7 7 10 10 11 12 12 12 12 12 11 10 10 10 10 9 9 9 9 10 10 10 9
13 13 13 13 14 14 14 14 12 12 12 12 12 12 10 9 10 12 12 12 12 12 11 11 11 10 9 8 8 8 7 7 7 7 6 5 5 4 3 3 4 4 5 5 5 5 4 3 3 2 1 2 1 2 5 7 7 7 7 8 10 11 8 8 10 11 13 13 12 13 12 11 11 11 10 10 9 9 8 8 9 9 9 9 9
13 14 14 14 14 14 14 13 12 12 12 13 13 11 10 10 11 12 12 12 12 11 11 11 10 9 9 8 7 7 7 6 5 6 5 4 4 3 3 3 4 4 4 4 4 4 4 3 3 3 2 2 2 2 5 7 7 6 6 7 10 11 9 8 10 12 13 13 12 12 12 11 10 10 10 9 9 8 7 7 8 8 9 8 8
13 14 14 14 14 14 14 13 12 13 13 13 12 11 10 11 12 12 12 11 11 11 10 10 9 9 8 7 7 7 6 6 5 5 5 4 4 4 5 5 5 6 5 4 4 4 4 4 3 3 3 4 3 3 5 8 8 8 7 7 10 10 10 10 12 13 13 13 12 11 12 11 10 10 10 9 9 7 7 7 7 8 8 7 7
13 13 14 14 14 14 14 13 13 13 13 13 12 11 11 12 13 12 11 11 10 10 10 9 8 8 8 7 7 7 6 6 6 6 7 7 7 8 8 8 7 7 6 5 5 6 6 5 5 5 5 5 5 4 6 8 9 10 9 9 10 10 11 12 14 15 13 12 11 11 12 10 9 9 9 9 8 7 7 7 7 7 7 6 6
13 13 14 13 13 13 13 13 13 13 13 13 13 12 12 13 13 12 11 11 10 9 10 10 9 8 7 7 8 8 8 8 9 9 9 9 10 10 10 9 8 7 8 8 8 8 8 8 7 7 7 7 6 6 7 8 10 12 12 11 11 11 12 13 13 15 14 13 13 12 12 11 10 9 9 9 7 6 6 7 6 6 6 6 5
13 13 14 13 13 13 13 13 13 13 13 13 13 13 13 13 13 12 11 11 10 9 9 10 9 9 8 8 9 9 9 11 12 12 11 11 11 11 11 10 9 10 11 11 10 10 10 9 8 9 9 9 8 7 7 9 11 14 14 14 13 12 12 12 11 12 14 13 13 13 12 11 10 9 9 8 7 7 6 6 6 6 6 5 5
13 13 14 13 12 13 14 13 13 13 14 14 13 14 13 13 13 12 11 10 10 10 10 10 10 10 9 9 10 10 11 13 14 13 13 12 12 12 13 13 13 13 13 12 12 12 11 10 10 10 10 9 8 8 8 10 11 14 16 16 16 14 13 13 11 11 12 12 12 12 11 11 10 9 8 8 7 7 6 6 6 6 6 6 6
14 13 13 13 12 12 13 14 13 13 14 14 14 13 13 13 12 11 11 10 10 11 11 11 11 11 10 10 11 12 12 14 15 14 14 14 14 14 15 15 15 14 14 14 14 13 11 11 11 12 11 10 10 10 11 12 12 14 15 17 17 16 15 14 13 11 12 12 12 11 11 10 9 9 9 8 7 6 6 6 6 7 7 7 7
15 13 13 13 12 12 13 13 13 13 14 14 14 13 12 12 11 10 10 11 11 12 12 11 12 12 12 12 12 12 13 15 16 15 15 16 15 15 17 16 16 15 15 15 14 13 12 12 13 13 12 12 12 13 13 13 13 14 15 15 16 16 15 15 13 12 13 13 12 11 11 10 9 9 9 8 7 6 6 6 7 8 8 8 8
15 14 13 12 12 12 13 13 13 13 14 14 13 12 12 12 11 10 11 12 12 12 12 12 12 12 12 13 13 12 13 15 16 15 16 16 16 16 17 17 17 16 15 14 14 14 13 13 13 13 13 13 14 15 14 14 14 14 14 15 15 15 14 13 13 13 13 12 12 12 11 9 10 10 9 8 7 7 7 8 9 9 9 9 10
15 14 13 12 12 12 13 13 13 13 14 14 13 12 12 12 11 11 11 12 13 13 12 12 12 11 12 14 14 13 13 14 15 15 14 15 16 16 16 17 17 16 14 14 14 14 14 14 13 13 13 14 15 15 15 15 15 15 15 15 16 15 13 13 12 12 12 12 12 11 10 9 10 10 9 8 7 8 9 10 10 10 10 10 11
14 14 14 12 12 12 12 12 13 13 14 13 11 11 11 12 12 11 11 12 13 13 13 13 12 11 12 13 14 14 12 13 14 13 13 14 15 15 16 17 17 15 14 14 15 15 14 14 13 12 13 14 15 16 16 16 16 16 16 16 16 14 13 12 12 11 11 11 11 10 10 10 11 10 9 8 9 10 11 11 10 10 11 12 12
14 14 14 12 12 12 12 12 12 13 14 13 11 11 11 12 12 12 12 13 13 13 13 13 12 12 12 13 14 13 13 13 13 13 13 14 15 15 16 17 16 14 14 14 15 15 15 14 13 12 13 14 16 17 17 17 17 16 16 16 15 14 13 12 11 10 10 10 10 10 10 11 11 10 10 10 11 11 11 12 12 12 13 13 13
14 13 14 13 11 12 12 12 12 13 14 14 12 11 11 12 12 13 13 13 13 13 14 13 12 12 12 13 13 13 12 12 12 14 14 14 14 15 16 17 16 13 13 14 15 16 16 15 14 13 13 14 16 17 17 17 17 16 16 15 14 13 12 11 10 10 10 9 10 11 11 11 11 11 12 12 12 13 13 13 14 14 15 15 14
14 14 14 13 12 11 11 11 11 12 13 14 13 12 12 12 12 13 13 14 14 15 14 13 13 13 13 13 13 12 12 12 13 15 15 15 14 15 16 16 14 12 13 15 16 17 16 15 14 14 14 15 16 16 16 16 16 15 15 13 13 12 11 11 10 10 10 10 10 11 11 12 12 13 13 13 14 14 15 15 15 15 15 15 15
14 13 14 14 13 12 12 12 12 12 12 12 14 13 13 13 13 13 13 12 13 14 15 15 14 13 12 12 12 11 12 13 14 15 16 15 15 16 16 15 13 12 14 16 18 18 18 17 16 15 15 16 17 17 17 16 16 15 14 13 12 11 11 11 10 10 11 10 11 11 12 14 15 15 14 15 15 15 16 16 15 15 15 15 16
13 13 13 14 14 13 12 12 12 12 11 12 13 13 14 14 14 14 13 11 10 12 15 16 14 13 13 12 12 11 12 14 14 15 16 15 16 17 17 15 13 13 15 16 18 18 18 18 18 17 17 17 17 17 17 16 15 15 14 13 13 12 11 11 10 10 11 11 12 14 15 16 16 16 16 16 16 16 16 15 15 15 15 16 16
12 13 13 13 13 13 12 13 13 12 11 11 12 12 12 13 14 14 12 11 11 12 14 15 14 13 13 12 13 12 13 14 14 15 16 16 15 15 16 15 13 13 14 15 17 17 18 18 19 18 18 18 18 18 18 17 16 15 15 14 14 13 13 12 12 12 13 14 16 17 17 17 17 17 17 17 17 16 15 15 15 16 16 16 17
11 12 13 12 13 13 12 12 13 13 12 11 11 13 12 12 12 11 11 11 12 12 13 14 13 12 12 13 13 13 13 14 13 14 16 16 15 13 14 14 13 13 15 16 17 18 18 18 18 18 18 18 19 19 18 18 17 17 16 16 15 14 14 14 14 15 17 18 18 19 18 18 18 17 17 17 16 16 16 16 16 16 16 16 16
11 11 12 12 12 12 12 12 12 13 13 12 12 13 13 12 12 11 13 13 13 13 13 14 13 13 14 15 14 13 13 14 13 13 15 15 15 13 12 12 12 13 14 16 18 19 19 18 18 18 19 20 20 19 19 19 19 18 17 17 16 16 16 17 17 18 19 20 20 20 19 18 18 18 17 17 16 16 16 17 17 17 16 16 15
11 11 11 12 12 12 12 12 11 12 14 14 13 14 13 12 13 13 14 15 15 15 15 15 15 15 16 15 15 14 14 14 14 14 14 14 15 14 13 13 13 14 14 15 19 20 18 18 18 18 20 21 21 21 20 19 19 19 18 18 18 18 19 20 20 20 21 21 21 20 19 18 18 18 17 17 17 17 17 17 17 16 16 15 14
12 11 11 11 11 12 12 12 11 12 13 14 15 15 15 14 14 14 14 15 16 15 16 16 16 16 16 16 15 15 15 16 16 15 15 15 15 15 14 14 14 16 16 17 20 19 17 19 19 18 20 22 22 22 22 21 20 20 20 20 20 21 21 22 22 21 21 21 20 20 19 18 18 18 18 17 17 18 18 17 17 16 15 14 13
12 12 11 10 11 11 11 11 11 11 13 14 15 15 15 15 15 15 15 15 15 15 16 16 16 16 16 16 16 16 17 17 17 17 17 17 16 15 14 14 14 14 14 16 18 17 17 18 18 18 19 21 22 22 22 22 22 21 21 21 21 22 22 22 22 21 21 20 20 19 18 18 18 18 17 17 17 17 17 17 16 15 14 13 12
12 12 12 11 10 11 11 11 11 11 12 13 15 15 15 16 16 16 16 15 15 15 15 16 16 16 16 16 16 16 17 17 18 18 18 18 17 15 14 13 13 12 12 13 14 15 15 16 17 16 17 19 21 21 22 22 22 22 21 21 21 22 22 22 21 21 20 19 19 18 18 17 17 17 17 17 17 16 16 15 14 13 12 12 13
12 12 12 12 10 10 11 11 11 11 11 13 14 14 15 16 16 16 16 15 15 15 15 15 16 16 15 16 16 16 17 17 17 18 18 18 17 16 15 14 13 12 12 13 13 13 14 15 15 14 14 17 19 20 21 21 22 22 21 21 21 21 21 20 20 19 19 18 18 17 16 16 16 16 16 16 15 14 13 12 12 11 11 12 13
13 12 12 12 11 10 10 10 11 12 12 12 13 14 14 15 16 16 16 16 15 15 15 15 15 15 15 15 15 15 16 16 16 17 17 17 17 17 16 15 14 13 12 12 12 12 13 14 14 14 14 14 17 19 19 21 22 22 22 21 21 20 19 18 18 18 17 17 16 16 15 15 15 14 14 14 13 12 11 11 11 11 12 12 12
13 13 12 12 12 11 10 10 11 12 12 12 13 14 13 14 15 16 16 16 15 15 15 14 14 14 14 14 14 14 15 15 15 15 15 16 16 16 16 15 15 13 13 13 12 12 13 13 13 14 14 14 15 17 18 19 20 20 21 20 19 18 17 17 16 16 15 15 15 14 14 14 13 13 13 12 11 10 10 10 11 12 12 12 12
13 13 12 12 12 11 11 11 10 11 12 13 13 14 13 13 14 15 15 15 15 15 15 14 14 14 13 13 13 13 13 14 14 14 14 14 14 15 15 15 15 15 14 13 12 12 13 13 13 14 15 14 14 15 16 17 18 18 18 18 17 16 16 15 15 14 14 14 13 12 12 12 12 11 11 10 10 9 10 11 11 12 12 12 13
13 13 12 13 12 12 11 11 11 11 12 13 13 13 13 13 13 14 14 15 15 14 14 14 13 13 13 12 12 12 12 12 13 13 13 12 12 12 13 14 14 14 14 13 13 13 12 13 12 13 14 14 14 14 14 15 16 16 16 16 15 14 14 13 13 13 12 12 11 11 11 11 11 11 10 9 9 10 10 11 12 12 12 13 14
13 13 13 13 13 12 11 11 11 11 11 13 13 13 13 13 13 13 13 13 14 13 13 13 12 12 12 12 11 11 11 11 12 12 12 12 11 11 11 12 12 13 13 13 13 13 12 12 12 12 13 13 13 13 13 14 14 14 14 14 13 13 12 11 11 11 11 10 10 10 10 10 10 10 10 9 10 10 11 12 12 12 13 14 15
13 14 13 13 13 13 12 11 11 11 11 12 13 13 13 13 13 12 12 12 12 12 12 12 11 11 11 11 10 10 10 10 10 11 11 11 10 10 10 10 10 11 12 12 12 12 12 12 11 11 12 12 12 12 12 13 13 13 13 12 12 11 11 10 9 9 10 10 9 10 10 11 11 10 10 10 10 11 12 12 13 13 14 15 15
13 13 14 13 14 14 12 11 11 11 12 12 12 13 13 13 13 12 12 11 11 11 10 10 10 10 10 10 10 9 9 9 9 9 10 10 9 9 9 9 9 9 10 11 11 11 11 11 11 10 11 11 11 11 11 11 12 12 12 12 11 10 10 9 8 8 8 9 9 10 10 11 11 10 10 10 11 12 12 12 13 14 14 15 14
13 14 15 14 14 15 13 12 12 12 12 12 13 13 13 13 13 12 12 11 10 10 9 9 9 9 9 9 9 9 9 8 8 8 8 9 8 8 8 8 9 9 9 9 9 9 9 9 9 9 9 9 9 9 9 9 10 11 11 11 10 9 9 9 8 8 8 8 8 10 10 11 11 10 10 10 11 11 12 13 14 14 15 14 13
15 14 15 16 16 16 15 13 12 13 13 13 13 13 13 13 13 13 12 11 10 9 9 8 7 7 7 8 8 8 8 8 8 7 7 8 7 7 7 8 8 8 8 8 8 8 8 8 8 8 8 8 8 8 7 7 8 9 9 10 10 9 8 8 8 8 7 7 8 10 10 10 11 11 11 11 11 11 12 14 15 15 14 13 12
16 16 16 17 17 17 17 15 14 14 14 14 14 14 13 13 13 13 12 11 10 9 9 8 7 6 6 7 7 7 8 7 7 7 7 7 7 7 7 7 7 8 7 7 7 7 8 8 7 7 7 7 7 6 6 6 7 7 7 8 8 8 8 8 8 8 7 7 9 10 10 11 12 12 12 11 11 11 12 14 14 14 13 12 10
17 17 16 17 18 18 18 17 16 15 14 14 14 13 13 12 12 12 12 11 10 9 9 8 7 6 5 5 6 7 6 6 7 7 7 7 6 7 7 7 7 7 7 7 7 7 7 7 6 6 6 6 6 5 5 6 6 6 6 6 6 7 7 7 7 8 7 7 8 10 10 11 13 13 12 12 11 11 12 13 13 13 11 10 9
16 16 16 17 18 19 19 19 17 15 14 14 14 13 12 12 12 12 12 11 11 10 9 8 7 6 5 5 5 5 5 5 6 6 6 6 6 7 7 6 6 7 7 7 6 6 6 6 5 5 5 4 4 4 5 5 6 6 5 5 5 6 6 6 6 7 7 7 8 9 10 11 12 13 12 11 11 11 11 12 12 11 10 9 8
16 16 17 16 17 19 20 20 18 16 14 14 13 13 13 13 13 13 12 12 12 11 10 9 8 7 6 6 5 5 5 5 5 5 5 6 6 6 7 7 6 6 6 5 5 5 5 5 4 4 4 4 4 4 4 5 5 5 6 6 5 6 6 6 6 6 6 8 8 8 9 10 12 12 11 10 10 10 10 10 10 9 8 8 8
17 17 17 17 17 19 21 21 19 17 15 14 14 14 14 14 14 14 14 13 13 11 10 10 10 9 7 6 6 5 4 4 4 5 5 5 6 6 7 7 7 6 6 5 4 4 3 3 3 3 3 3 4 4 4 4 4 4 5 6 6 6 6 7 7 6 7 8 8 9 10 10 11 12 10 8 9 9 8 9 9 8 8 8 9
17 17 17 18 17 18 20 21 20 18 16 15 15 15 15 15 15 15 14 13 12 11 10 10 9 9 8 7 7 6 4 4 4 4 4 5 5 6 7 7 7 7 7 6 6 5 3 2 2 2 2 2 3 4 4 4 5 5 5 5 6 6 6 7 7 7 7 8 9 9 10 10 10 11 10 8 8 8 8 8 8 8 8 9 10
17 17 17 17 17 17 19 21 21 19 18 16 16 17 17 16 16 15 14 13 12 11 11 10 9 9 8 8 8 7 5 4 3 3 4 4 5 5 6 6 7 7 7 7 7 6 5 3 2 2 2 1 2 3 3 4 5 5 5 6 6 6 6 6 7 8 8 9 9 9 10 10 9 9 9 8 7 8 8 7 8 8 9 9 9
15 17 17 17 17 17 18 20 22 21 19 18 18 18 18 17 17 15 14 13 13 12 12 11 11 10 9 9 8 7 6 4 3 3 3 4 4 5 5 6 6 6 6 6 6 5 5 4 3 2 2 1 1 2 3 4 5 5 6 6 7 6 7 7 7 7 8 9 9 9 9 9 9 9 8 7 7 7 8 8 8 9 9 9 9
14 15 17 17 17 17 17 19 22 22 21 20 19 19 19 18 17 16 14 14 13 13 13 13 12 11 10 10 9 8 7 5 4 3 3 3 4 4 5 5 5 5 5 5 4 4 4 4 4 3 2 1 1 1 2 4 5 5 6 7 7 7 7 7 7 7 8 8 9 9 9 9 9 9 8 8 7 7 7 8 9 9 9 8 8
14 14 16 17 17 17 16 17 21 24 24 22 21 20 19 19 18 16 15 14 14 14 14 14 13 12 11 10 10 9 8 6 5 3 3 3 3 3 4 4 4 4 4 4 4 3 3 4 4 3 3 2 1 1 2 3 4 5 6 7 8 8 7 7 8 8 8 8 8 9 9 9 8 8 8 8 8 7 7 8 9 9 8 7 8
14 13 14 16 17 17 17 18 20 24 25 24 23 21 20 19 18 16 16 15 16 15 15 15 13 13 12 11 10 10 9 8 6 4 3 2 2 2 2 2 2 3 3 3 3 3 3 3 3 3 3 2 2 1 2 3 3 5 6 7 8 8 8 7 8 8 8 8 8 8 9 8 8 8 8 8 8 8 8 8 8 8 7 7 8
Wind_Direction
92 95 93 90 89 91 94 94 86 82 79 77 74 73 79 82 88 96 104 111 115 117 119 120 120 121 123 126 130 132 131 129 128 129 131 130 127 122 114 105 96 89 81 73 67 66 66 65 65 47 276 264 182 122 118 151 150 115 108 116 127 132 133 120 110 103 104 116 127 133 131 127 119 113 108 104 102 101 100 99 99 100 101 101 101
93 92 93 93 96 99 97 91 88 85 81 80 76 72 76 85 93 97 103 106 110 112 114 116 116 118 120 124 126 124 122 120 121 124 126 125 122 116 105 94 83 78 75 72 67 61 55 63 83 166 240 238 197 157 151 187 182 134 121 130 144 143 135 124 117 112 111 118 132 142 137 130 122 115 111 107 106 107 107 102 101 101 102 101 101
99 98 100 101 102 100 94 92 94 90 85 84 83 85 88 93 97 99 103 105 109 112 114 114 112 114 117 122 120 117 116 118 122 124 125 121 116 107 98 90 81 77 73 72 72 63 52 60 81 154 237 232 195 174 170 194 191 157 144 148 155 150 138 131 124 117 115 118 129 139 133 126 119 113 111 110 111 112 109 104 104 104 102 100 100
105 106 106 104 103 102 97 95 98 97 97 96 98 101 93 93 97 100 101 103 104 105 106 107 109 113 116 117 114 114 115 119 121 122 122 116 105 94 87 82 79 77 71 69 70 64 55 56 61 76 51 140 201 182 169 191 192 178 168 155 155 151 141 136 125 115 112 117 127 132 129 121 116 113 113 114 115 114 111 108 109 108 104 99 98
107 107 106 104 102 102 101 99 100 103 104 104 108 103 94 96 100 101 100 100 100 100 102 104 108 111 113 114 112 114 117 119 119 120 118 110 100 89 74 67 73 77 75 73 70 64 56 50 33 43 57 137 212 190 166 187 191 187 175 153 153 144 141 143 125 114 109 115 124 127 126 120 117 117 119 119 118 117 115 113 110 107 103 98 98
110 107 104 105 104 106 107 107 106 104 107 110 109 98 96 104 105 105 104 104 102 102 103 104 106 107 109 112 113 114 118 119 120 123 118 112 104 89 72 64 71 77 81 79 75 69 55 38 24 37 86 146 199 183 164 183 188 189 177 152 149 136 144 155 127 116 112 113 119 121 121 118 119 120 122 121 119 118 115 113 109 106 103 101 102
112 110 107 109 110 111 110 110 111 110 112 109 100 95 105 115 113 110 108 106 103 101 100 101 101 103 104 106 109 112 114 117 122 122 117 117 111 95 86 75 76 77 77 75 73 69 52 32 26 30 96 131 154 153 146 168 178 181 172 148 141 135 146 153 124 118 116 111 115 119 116 115 118 122 126 123 121 119 114 110 107 106 102 101 101
113 111 110 110 110 108 107 110 114 111 105 98 96 106 121 122 114 109 106 102 99 98 96 97 99 100 99 99 102 106 109 115 123 121 117 121 115 106 101 90 93 93 79 70 70 69 54 40 40 38 62 97 110 132 131 142 153 161 164 142 133 135 141 136 119 120 119 112 114 117 112 113 121 127 129 124 122 119 112 106 102 102 98 96 97
113 109 108 108 108 108 109 111 110 103 97 98 108 121 124 116 109 105 103 101 99 99 97 96 98 99 99 101 101 105 114 121 124 117 110 109 109 108 111 109 109 105 91 79 79 79 73 66 68 68 81 98 103 115 122 129 137 144 150 133 125 133 132 119 114 120 117 109 109 110 110 115 125 129 126 121 120 117 111 104 99 98 96 94 94
109 106 106 104 105 107 108 108 104 101 104 111 119 119 112 105 102 101 102 102 103 102 102 102 102 100 102 104 103 102 110 119 118 104 97 99 103 103 107 111 110 107 97 91 88 82 82 81 84 95 99 102 109 113 115 124 132 137 138 126 123 134 131 119 118 122 115 104 102 105 112 118 124 126 122 118 116 111 104 98 93 91 90 86 83
105 103 103 100 103 106 106 107 107 109 112 115 112 107 102 100 98 100 101 101 102 102 104 107 105 103 104 106 104 103 102 105 106 100 99 102 104 105 107 108 106 101 94 91 88 84 86 86 87 95 97 96 101 107 113 121 125 127 127 125 125 130 126 119 119 120 115 112 111 111 115 119 124 124 119 115 109 100 92 88 85 83 81 79 74
107 105 102 100 105 109 110 110 111 112 109 106 100 96 94 93 95 97 98 98 101 103 104 106 104 103 106 107 108 109 105 103 102 102 104 104 104 106 107 104 99 95 94 93 89 88 89 88 86 89 93 94 95 100 110 116 117 119 123 127 128 126 118 112 112 111 110 111 111 112 115 117 120 118 114 107 99 88 82 80 78 74 75 76 74
107 105 102 102 104 108 109 108 107 106 103 99 94 90 87 87 91 96 97 100 105 106 104 102 102 103 104 104 107 111 110 107 104 103 104 101 98 100 102 101 99 96 93 92 89 88 90 92 90 90 93 95 98 101 107 110 111 117 123 127 128 126 119 115 113 105 101 102 104 107 109 111 112 111 106 96 87 79 74 72 68 67 68 71 73
105 104 102 101 102 104 103 102 101 101 100 97 92 88 88 89 90 95 98 101 105 105 103 103 104 104 105 104 106 110 111 106 103 103 101 97 95 97 99 98 97 95 91 89 88 90 93 96 94 94 95 97 102 105 107 110 113 117 122 125 125 124 122 121 119 110 105 105 104 106 105 105 106 102 95 86 79 71 66 66 67 69 72 73 75
105 104 101 99 101 102 100 99 98 98 98 95 92 91 93 95 95 97 99 101 101 100 103 105 105 104 105 108 107 108 107 105 103 103 99 96 96 96 97 98 96 93 91 90 91 95 96 95 95 97 98 101 104 106 109 112 116 119 119 120 119 119 120 119 115 108 106 107 105 104 101 100 99 93 86 81 74 66 63 67 72 76 80 81 81
105 104 101 100 102 101 100 99 98 97 97 96 96 98 99 100 103 104 102 101 102 102 103 104 104 103 106 109 108 105 104 104 104 103 99 97 96 96 99 101 97 92 91 92 94 96 95 94 96 98 101 103 105 107 111 115 117 117 115 114 112 112 110 106 104 103 103 103 101 97 94 95 92 85 79 74 69 68 71 75 79 81 84 85 87
105 104 103 102 102 102 102 101 101 99 97 98 101 103 103 104 107 107 104 104 105 104 102 101 104 106 107 107 105 102 102 103 104 104 101 96 93 97 104 102 97 94 93 94 95 96 95 96 97 101 107 108 108 110 114 117 117 115 114 111 109 107 100 96 96 96 96 93 90 88 89 90 84 79 75 70 68 74 79 81 82 83 85 86 87
106 105 104 103 103 102 103 104 104 102 99 101 105 106 107 111 112 110 107 103 101 100 99 100 106 106 102 103 103 103 103 102 102 103 100 93 92 99 104 102 99 96 95 95 96 95 97 100 101 104 111 113 112 113 115 115 115 115 114 111 107 103 97 93 89 85 83 82 83 86 87 84 78 75 73 73 77 80 81 82 83 84 85 85 85
109 106 104 103 104 104 104 105 105 105 106 107 107 108 109 112 112 110 106 100 95 94 96 99 102 102 100 101 102 102 102 101 102 102 99 94 95 100 102 102 100 97 97 96 95 95 96 98 101 103 108 115 117 115 114 114 114 114 113 110 105 100 97 94 92 87 82 82 87 89 85 78 75 75 77 80 82 82 82 83 84 83 84 85 86
111 108 107 105 105 107 105 104 106 108 110 111 111 111 109 107 108 109 106 102 97 94 95 99 102 102 103 104 99 99 101 105 106 104 102 100 100 100 99 98 99 100 100 97 95 93 93 94 97 103 108 115 120 117 115 115 115 114 112 109 105 103 100 96 93 90 86 87 89 87 81 77 78 83 85 85 83 83 83 83 84 83 85 87 88
114 113 111 109 108 107 107 107 109 109 109 113 113 110 107 104 106 107 105 104 103 101 100 102 105 105 106 106 100 100 108 109 107 104 102 104 103 96 91 93 98 103 101 98 95 93 94 95 97 103 110 116 121 121 120 119 117 116 114 112 110 107 103 98 95 93 90 90 87 83 81 83 87 89 89 87 86 84 83 83 83 84 85 86 87
115 114 113 112 111 110 110 111 111 110 111 112 111 110 109 106 106 106 105 104 103 102 105 107 108 110 108 101 97 99 105 105 101 100 101 104 105 100 97 100 105 105 99 95 93 92 94 95 96 102 110 116 121 125 125 123 122 121 119 117 114 110 105 101 100 99 96 91 87 86 88 91 91 90 89 88 87 85 84 84 85 85 85 86 86
115 114 114 112 112 112 111 112 112 110 110 106 105 110 112 110 110 109 105 97 90 89 98 107 109 111 106 97 99 96 93 99 101 100 101 104 105 105 106 108 106 100 95 92 91 92 93 93 95 99 106 113 117 121 124 123 123 122 121 120 116 112 108 103 101 98 94 92 92 94 95 94 92 91 89 88 86 85 85 86 86 85 84 85 86
117 115 113 113 111 110 111 112 112 112 110 105 104 107 109 109 111 114 111 103 97 91 92 100 103 105 107 110 115 104 91 95 101 101 100 98 99 101 101 102 96 93 94 93 93 92 91 91 92 96 102 109 114 117 121 122 123 123 123 121 117 114 110 106 102 100 98 98 98 99 98 95 93 92 90 87 85 86 86 85 84 83 84 85 87
119 116 115 114 112 111 109 110 113 113 111 109 106 104 101 99 101 110 115 115 113 107 102 102 104 105 106 107 105 98 90 87 86 88 89 87 85 81 82 87 86 89 94 92 94 94 91 91 91 96 103 109 113 117 121 124 125 125 123 120 118 115 111 108 106 105 104 103 101 99 97 95 93 91 89 87 86 86 84 82 82 82 83 85 86
125 121 119 116 114 112 110 110 113 114 113 112 108 101 98 96 98 101 104 107 107 105 102 98 99 100 95 92 87 86 86 81 77 78 80 83 85 80 78 83 82 86 87 83 90 93 89 91 91 94 100 103 107 112 117 120 121 121 119 117 115 112 110 109 109 108 107 105 102 98 96 93 91 89 87 86 85 84 82 81 81 82 84 86 86
132 126 123 121 118 116 113 112 112 115 117 117 114 109 107 108 106 103 101 102 101 99 97 91 90 90 88 87 84 82 81 78 76 77 79 86 94 97 101 101 95 98 96 90 95 94 91 93 92 92 93 93 96 100 105 109 112 113 114 114 112 111 110 110 110 109 106 104 101 98 95 92 89 86 85 84 83 82 82 82 83 85 87 87 86
139 132 128 126 123 120 118 116 113 115 120 122 122 118 117 114 110 108 105 101 101 99 96 92 90 88 87 86 84 83 83 81 80 80 79 82 85 90 99 100 96 102 105 105 106 104 103 100 98 97 95 94 95 97 100 103 106 109 111 111 111 111 111 111 110 107 105 101 98 96 93 91 87 84 82 81 80 80 81 83 85 86 87 86 82
144 138 134 132 128 125 123 119 116 118 123 126 126 124 121 117 114 111 108 106 104 102 98 96 94 91 90 89 89 88 88 86 85 83 80 79 80 81 87 89 89 94 96 99 103 103 103 98 97 99 98 100 101 102 104 105 107 108 109 109 110 111 110 109 107 104 101 98 95 92 89 87 85 82 79 77 76 77 79 81 84 85 84 81 76
150 145 141 138 134 131 129 126 123 122 125 130 130 129 125 120 117 114 113 112 109 106 103 101 98 95 94 94 95 94 92 90 87 85 82 82 83 84 86 87 90 94 91 91 92 91 91 88 88 90 95 101 104 105 106 106 106 106 106 107 107 108 107 106 103 101 98 95 92 89 87 84 81 78 76 75 75 76 78 80 82 82 80 76 70
156 152 148 145 142 137 136 134 130 127 128 132 134 133 129 124 120 117 116 115 113 111 108 105 102 100 100 99 100 98 95 92 90 87 85 85 85 87 90 92 95 98 97 96 91 88 86 84 84 85 91 99 102 103 104 105 105 105 105 105 105 105 104 103 102 100 96 93 91 88 85 82 79 76 74 74 74 76 78 80 81 80 76 70 65
162 159 155 152 149 144 143 142 136 133 133 135 137 138 134 128 124 120 117 116 115 113 112 110 107 105 104 104 104 101 98 95 93 90 88 88 88 89 90 95 97 97 98 97 95 94 93 90 89 89 90 95 99 102 104 105 105 106 106 106 105 104 103 102 100 98 96 92 89 86 84 80 77 75 73 74 75 77 79 81 80 75 69 64 62
168 165 162 159 156 151 150 149 145 140 138 139 141 142 140 134 128 123 119 116 115 114 113 112 110 109 108 108 108 105 102 98 96 94 92 91 92 91 91 94 97 98 96 95 97 98 98 96 96 96 96 96 98 102 105 106 107 108 108 107 106 105 103 102 99 96 95 92 89 86 84 80 77 75 74 74 76 78 79 79 75 69 65 64 65
173 169 168 166 163 159 157 155 153 147 144 144 145 146 145 140 133 126 122 117 115 114 113 113 112 112 112 112 112 109 106 102 99 97 95 93 93 94 93 93 95 97 97 100 102 100 99 98 99 102 101 101 101 103 106 106 107 108 109 108 107 105 103 101 98 96 94 92 89 87 84 81 79 76 74 73 74 76 76 73 70 67 67 69 72
177 175 173 172 170 167 164 161 159 155 150 149 150 151 150 147 141 133 127 121 117 115 114 114 116 117 118 118 117 114 109 105 103 99 97 96 95 96 96 95 95 96 98 101 102 100 99 98 99 101 102 104 106 107 108 108 110 110 109 109 108 107 104 101 98 97 94 92 91 89 86 84 81 77 72 70 71 71 71 70 70 72 74 76 78
179 179 179 177 175 174 170 165 163 163 158 155 154 155 156 154 149 141 134 127 122 119 117 116 118 121 123 124 123 120 115 110 106 102 100 98 98 98 98 98 97 97 98 99 98 98 99 98 99 100 102 105 107 109 110 111 112 112 112 113 111 109 106 103 101 99 97 94 94 92 88 85 81 77 73 69 69 69 71 74 77 80 81 82 83
182 180 183 182 179 178 177 170 167 169 164 161 160 160 161 160 156 151 143 136 131 124 120 118 118 122 126 128 129 126 121 117 112 108 105 103 102 101 101 102 101 101 101 100 99 100 101 100 99 100 102 104 105 107 109 110 111 111 112 113 113 112 109 107 104 101 98 95 96 95 91 87 82 77 73 70 71 74 76 80 84 85 86 86 85
182 181 184 185 182 181 182 178 172 173 171 166 164 165 166 166 163 158 152 146 139 129 124 123 121 124 129 133 135 133 129 125 121 116 111 108 106 106 106 107 106 105 104 103 101 101 100 100 100 99 100 102 104 104 105 108 110 111 113 113 112 113 112 109 104 99 96 95 96 95 93 90 83 77 72 72 74 78 82 85 88 89 89 89 87
179 181 184 184 184 184 185 184 178 177 177 172 169 171 172 171 170 166 161 156 149 140 134 130 126 126 130 135 140 140 137 135 132 128 121 117 114 113 112 112 112 109 107 106 104 101 99 98 100 100 100 102 102 102 103 104 108 111 114 115 115 115 113 111 107 101 99 100 100 99 98 94 88 80 75 77 79 81 85 89 91 93 92 90 87
179 179 184 185 185 186 186 187 186 182 180 179 176 176 177 176 176 172 168 164 158 152 145 138 131 130 132 137 143 144 144 144 143 140 135 130 126 122 118 118 117 114 111 108 106 104 102 101 101 101 102 103 103 105 107 106 107 110 112 115 117 117 117 115 110 105 104 107 107 106 106 102 96 90 85 85 85 85 88 91 94 94 93 91 88
183 180 183 186 187 188 189 189 191 190 185 183 182 180 179 180 181 179 174 170 167 162 156 147 139 137 137 142 148 149 152 153 151 150 147 144 140 134 128 127 126 123 118 113 110 108 106 104 102 101 100 101 104 110 115 115 112 111 111 114 117 118 120 117 111 103 99 104 112 114 113 111 105 100 97 94 91 88 89 93 95 94 93 92 89
188 185 183 187 189 190 192 192 193 195 191 186 186 184 181 182 186 187 181 175 173 170 167 158 148 146 148 151 154 155 158 159 158 158 157 156 154 149 141 139 139 137 135 131 124 118 112 108 105 103 101 103 108 116 124 123 120 118 117 120 121 120 120 117 110 104 98 101 113 118 117 114 109 105 103 98 94 91 91 95 96 95 95 93 88
191 188 186 188 191 192 194 196 197 199 195 190 188 186 184 185 188 189 186 182 179 178 176 167 157 159 162 163 161 160 163 164 165 165 164 165 165 162 157 155 155 152 149 146 136 125 117 112 108 107 107 111 118 128 131 126 125 127 126 129 134 132 126 120 114 111 109 109 114 117 115 113 109 106 103 99 97 95 95 97 97 97 96 92 89
193 191 190 191 193 195 196 198 198 199 198 193 189 186 187 188 190 190 189 188 185 184 183 174 171 179 177 173 170 164 165 165 166 168 166 169 171 170 168 168 172 168 162 157 145 132 121 116 116 117 122 128 130 136 137 132 132 133 133 137 145 145 139 132 125 120 119 119 121 120 117 115 111 106 103 101 101 101 101 102 100 99 96 92 95
196 194 193 193 194 197 199 200 200 199 197 195 191 188 189 190 191 192 192 192 189 187 189 182 181 187 182 175 175 169 165 165 164 165 164 168 173 175 176 177 180 182 182 180 170 159 145 134 127 128 135 133 131 138 142 139 138 139 142 140 142 144 141 136 132 126 124 126 130 130 126 124 120 115 112 111 110 110 110 108 104 101 99 100 103
199 199 197 195 196 199 201 202 203 200 196 196 195 193 192 193 194 195 195 196 192 190 193 193 190 190 184 178 179 174 168 164 163 163 164 168 173 176 178 179 182 186 191 194 196 199 196 179 147 137 144 137 134 136 137 142 141 142 147 141 137 139 139 136 134 130 129 132 137 140 136 134 131 126 124 124 122 121 118 113 109 105 106 108 109
202 203 201 199 197 199 202 204 204 202 197 196 197 198 197 197 198 199 199 198 197 195 197 200 201 198 190 185 182 178 169 164 162 162 162 165 171 176 177 177 180 184 191 196 203 210 212 214 206 163 156 154 141 131 128 133 135 141 148 141 137 138 136 134 131 128 131 138 143 145 143 141 139 136 133 134 133 129 123 117 112 111 113 114 112
204 204 202 200 199 200 202 205 205 204 201 197 199 202 202 201 201 201 201 200 200 199 199 204 207 205 199 192 187 181 171 168 168 169 166 161 164 173 175 175 177 178 183 189 197 203 202 208 216 197 179 166 138 132 131 131 133 144 151 146 143 142 138 134 131 129 135 144 147 146 147 146 146 145 143 143 141 132 124 119 117 118 119 117 115
205 205 203 202 201 201 202 205 206 205 204 202 201 205 207 206 205 203 202 203 204 203 203 206 209 209 205 198 194 187 178 173 177 178 176 168 163 165 168 169 169 169 172 176 183 188 182 191 203 201 202 206 178 156 137 134 138 148 156 153 148 145 143 139 136 135 138 146 149 149 151 155 155 154 152 150 143 133 127 123 123 125 123 118 118
205 205 205 204 203 201 202 205 207 206 206 205 204 207 209 210 210 207 204 206 210 211 210 210 210 211 208 201 198 195 187 179 181 187 184 178 172 168 166 163 162 159 159 160 162 164 164 173 186 193 204 208 206 195 146 142 145 151 161 161 153 150 150 144 140 141 143 148 152 154 156 161 163 160 157 155 147 138 132 129 131 130 125 121 123
205 206 205 206 204 202 202 204 207 207 206 205 206 208 211 212 213 211 209 211 214 216 217 215 213 214 211 205 201 200 194 184 181 187 190 190 195 199 185 169 164 157 152 152 151 151 154 160 168 175 184 185 179 171 147 144 148 156 166 166 159 156 155 150 145 144 147 149 154 159 160 166 172 168 162 157 151 145 139 137 138 133 127 127 130
Height
5895 5895 5895 5894 5895 5895 5896 5896 5896 5895 5895 5894 5895 5895 5896 5896 5896 5897 5897 5898 5898 5898 5898 5899 5900 5901 5902 5902 5903 5903 5903 5903 5904 5904 5904 5905 5905 5905 5906 5906 5906 5907 5907 5907 5907 5906 5905 5905 5904 5904 5903 5903 5904 5906 5906 5903 5903 5906 5907 5907 5907 5907 5907 5908 5907 5907 5907 5908 5909 5910 5909 5910 5910 5911 5911 5911 5911 5911 5911 5910 5910 5910 5910 5910 5910
5895 5896 5896 5896 5896 5897 5898 5897 5897 5896 5896 5896 5896 5897 5898 5898 5898 5898 5898 5898 5899 5899 5899 5900 5901 5902 5903 5903 5903 5903 5903 5904 5904 5905 5905 5905 5905 5906 5906 5906 5907 5907 5907 5907 5907 5906 5906 5905 5904 5903 5903 5903 5904 5907 5907 5904 5904 5907 5908 5908 5907 5907 5908 5909 5909 5908 5908 5909 5910 5911 5911 5911 5911 5912 5912 5912 5912 5912 5912 5911 5911 5911 5911 5911 5911
5897 5898 5898 5898 5898 5898 5898 5898 5898 5898 5897 5897 5897 5899 5900 5900 5900 5899 5899 5899 5899 5900 5900 5901 5902 5903 5904 5903 5903 5903 5904 5904 5904 5905 5905 5906 5906 5906 5907 5907 5907 5907 5907 5907 5906 5906 5906 5906 5905 5904 5903 5903 5904 5907 5908 5905 5904 5907 5908 5908 5908 5908 5908 5910 5910 5909 5909 5909 5910 5911 5911 5912 5912 5913 5913 5913 5913 5913 5913 5912 5912 5912 5912 5912 5912
5899 5899 5899 5899 5899 5899 5898 5899 5899 5899 5899 5899 5900 5901 5901 5901 5901 5900 5900 5900 5900 5901 5902 5903 5904 5904 5904 5904 5904 5904 5904 5905 5905 5905 5906 5907 5907 5907 5907 5908 5908 5908 5908 5908 5907 5906 5907 5907 5906 5904 5903 5903 5903 5906 5908 5906 5905 5906 5908 5909 5909 5908 5908 5910 5911 5910 5910 5910 5910 5911 5912 5913 5913 5913 5914 5914 5914 5914 5913 5913 5913 5913 5913 5913 5913
5900 5900 5900 5900 5900 5900 5900 5901 5900 5900 5900 5901 5902 5902 5901 5902 5902 5901 5901 5901 5902 5903 5904 5904 5905 5905 5905 5905 5905 5905 5906 5906 5906 5906 5907 5907 5908 5908 5908 5908 5909 5909 5909 5908 5908 5907 5907 5907 5906 5905 5904 5903 5903 5906 5909 5907 5906 5906 5908 5910 5911 5909 5909 5910 5911 5910 5911 5911 5911 5912 5913 5913 5914 5914 5915 5915 5915 5915 5914 5914 5914 5914 5913 5913 5914
5902 5901 5901 5901 5901 5902 5902 5902 5902 5902 5902 5903 5903 5901 5902 5903 5903 5903 5902 5903 5904 5905 5905 5906 5906 5907 5906 5906 5907 5907 5907 5907 5907 5907 5908 5908 5908 5908 5909 5909 5909 5910 5910 5909 5909 5908 5908 5908 5907 5906 5905 5903 5903 5906 5909 5909 5907 5907 5908 5911 5911 5910 5909 5910 5910 5910 5911 5912 5912 5913 5914 5914 5915 5915 5916 5916 5916 5916 5915 5915 5915 5915 5914 5915 5915
5903 5902 5902 5902 5903 5903 5903 5903 5904 5905 5905 5904 5902 5901 5904 5905 5905 5904 5904 5904 5905 5906 5907 5907 5908 5908 5908 5908 5908 5908 5908 5908 5907 5908 5909 5909 5909 5909 5909 5910 5910 5910 5910 5910 5910 5909 5909 5908 5908 5907 5905 5904 5904 5905 5909 5909 5908 5908 5909 5911 5912 5910 5910 5912 5911 5912 5913 5913 5914 5914 5914 5915 5916 5916 5917 5917 5917 5917 5916 5916 5916 5915 5915 5916 5916
5904 5904 5904 5904 5904 5904 5904 5904 5905 5906 5905 5903 5902 5904 5907 5907 5906 5905 5905 5906 5907 5907 5908 5909 5909 5909 5908 5909 5909 5910 5910 5909 5908 5909 5910 5910 5910 5909 5910 5910 5911 5911 5911 5911 5911 5910 5910 5909 5909 5907 5906 5905 5904 5906 5908 5910 5910 5909 5909 5910 5911 5911 5912 5914 5913 5913 5914 5914 5914 5914 5915 5916 5917 5918 5918 5918 5918 5918 5917 5917 5917 5917 5917 5917 5917
5905 5905 5905 5905 5905 5905 5905 5906 5906 5906 5905 5905 5906 5908 5908 5907 5907 5906 5906 5907 5908 5908 5909 5910 5910 5909 5909 5910 5910 5910 5910 5910 5909 5910 5911 5911 5911 5911 5911 5911 5912 5912 5912 5912 5912 5911 5911 5910 5910 5908 5907 5906 5905 5906 5909 5910 5911 5910 5910 5911 5911 5911 5914 5915 5914 5914 5914 5914 5915 5915 5915 5917 5918 5919 5919 5918 5919 5919 5919 5918 5918 5918 5918 5918 5918
5906 5906 5906 5906 5907 5907 5907 5907 5907 5907 5907 5908 5909 5909 5908 5908 5907 5907 5907 5908 5909 5910 5910 5911 5911 5910 5910 5910 5911 5911 5911 5910 5911 5911 5911 5911 5912 5912 5912 5912 5913 5913 5914 5914 5913 5912 5912 5911 5911 5910 5908 5907 5906 5907 5909 5910 5911 5911 5912 5912 5911 5912 5914 5915 5916 5915 5915 5915 5916 5916 5916 5918 5919 5920 5920 5920 5920 5921 5920 5920 5919 5919 5919 5919 5919
5906 5907 5908 5908 5908 5908 5908 5909 5909 5910 5910 5910 5910 5909 5908 5908 5908 5908 5908 5910 5910 5911 5911 5911 5911 5911 5911 5911 5911 5912 5912 5912 5912 5912 5912 5912 5913 5913 5913 5913 5914 5914 5914 5914 5914 5913 5913 5912 5912 5911 5909 5907 5907 5907 5909 5910 5911 5912 5914 5914 5913 5914 5915 5915 5916 5916 5917 5918 5918 5918 5919 5919 5920 5921 5921 5921 5922 5922 5921 5921 5921 5920 5921 5921 5920
5907 5908 5908 5909 5910 5910 5910 5910 5911 5912 5911 5910 5909 5908 5908 5908 5909 5909 5910 5911 5911 5912 5912 5912 5912 5912 5912 5912 5912 5912 5912 5913 5913 5913 5913 5913 5914 5914 5914 5915 5915 5915 5915 5916 5915 5914 5914 5914 5913 5912 5910 5909 5908 5908 5909 5910 5911 5913 5915 5916 5915 5915 5915 5915 5915 5916 5918 5919 5920 5920 5920 5921 5921 5922 5922 5922 5922 5922 5922 5922 5922 5922 5922 5922 5921
5908 5908 5909 5910 5911 5911 5911 5911 5911 5911 5911 5910 5909 5909 5909 5909 5910 5911 5911 5912 5913 5913 5913 5913 5913 5913 5913 5912 5913 5913 5913 5914 5914 5914 5914 5914 5915 5915 5916 5916 5916 5916 5917 5917 5916 5915 5915 5915 5914 5913 5911 5911 5910 5909 5909 5910 5911 5913 5916 5917 5918 5918 5917 5917 5917 5917 5919 5920 5920 5920 5921 5922 5922 5923 5923 5923 5923 5923 5923 5923 5923 5923 5923 5922 5922
5908 5909 5909 5910 5911 5912 5912 5911 5911 5911 5911 5910 5910 5910 5910 5911 5912 5913 5913 5914 5914 5914 5914 5914 5914 5914 5913 5913 5914 5914 5914 5915 5916 5915 5915 5916 5916 5917 5917 5917 5917 5917 5917 5917 5917 5917 5916 5916 5915 5913 5913 5912 5911 5911 5910 5910 5912 5914 5916 5918 5919 5920 5920 5921 5920 5921 5921 5921 5922 5922 5922 5923 5923 5924 5924 5924 5924 5924 5924 5924 5924 5924 5924 5923 5923
5909 5910 5910 5911 5912 5912 5912 5912 5912 5912 5912 5912 5912 5912 5912 5913 5913 5914 5914 5915 5915 5915 5915 5915 5914 5914 5914 5915 5915 5915 5915 5916 5917 5917 5917 5918 5918 5918 5918 5918 5918 5918 5918 5918 5918 5918 5918 5917 5915 5915 5914 5914 5913 5912 5912 5912 5913 5915 5916 5918 5919 5920 5921 5923 5923 5924 5924 5924 5924 5924 5924 5924 5925 5925 5925 5925 5926 5926 5926 5926 5925 5925 5924 5924 5924
5911 5911 5911 5912 5913 5913 5913 5913 5913 5913 5913 5913 5913 5913 5914 5914 5915 5915 5916 5916 5916 5917 5916 5916 5915 5916 5916 5916 5916 5916 5917 5918 5918 5918 5919 5919 5920 5920 5920 5920 5920 5919 5919 5919 5919 5919 5918 5917 5916 5916 5916 5915 5914 5914 5914 5914 5915 5916 5917 5918 5918 5920 5921 5923 5924 5925 5925 5925 5925 5925 5925 5926 5926 5926 5926 5926 5927 5927 5927 5926 5926 5926 5925 5925 5926
5912 5912 5912 5913 5914 5914 5914 5914 5915 5915 5915 5915 5914 5915 5915 5916 5917 5916 5917 5917 5917 5918 5918 5917 5917 5917 5917 5917 5918 5918 5918 5919 5919 5919 5920 5920 5921 5922 5922 5921 5921 5921 5921 5920 5920 5919 5918 5918 5918 5918 5917 5916 5916 5915 5916 5916 5917 5918 5918 5919 5919 5920 5921 5923 5924 5924 5925 5925 5925 5926 5927 5927 5927 5927 5927 5927 5927 5928 5928 5927 5927 5927 5927 5927 5927
5912 5913 5913 5914 5914 5915 5915 5916 5916 5917 5917 5917 5916 5916 5917 5917 5918 5918 5918 5918 5919 5919 5919 5919 5919 5918 5918 5918 5918 5919 5920 5921 5921 5921 5921 5921 5922 5923 5923 5922 5922 5922 5922 5922 5921 5920 5920 5919 5919 5919 5918 5917 5917 5917 5918 5918 5919 5919 5920 5920 5921 5922 5923 5924 5925 5925 5925 5926 5926 5927 5927 5928 5928 5928 5928 5928 5928 5929 5929 5928 5928 5928 5928 5929 5929
5914 5914 5914 5915 5915 5916 5916 5917 5918 5918 5919 5919 5918 5918 5918 5918 5918 5919 5919 5919 5920 5920 5920 5920 5921 5920 5919 5919 5920 5921 5922 5923 5924 5924 5923 5923 5923 5923 5924 5923 5922 5923 5924 5924 5923 5923 5922 5921 5920 5920 5919 5918 5918 5918 5919 5920 5920 5921 5922 5922 5923 5924 5925 5926 5926 5926 5926 5927 5927 5928 5928 5928 5929 5929 5929 5930 5930 5930 5930 5930 5930 5930 5930 5931 5931
5915 5915 5916 5916 5916 5917 5917 5918 5919 5919 5920 5920 5920 5919 5919 5919 5919 5920 5920 5921 5922 5922 5921 5921 5922 5922 5921 5921 5921 5922 5923 5925 5926 5926 5925 5925 5924 5924 5924 5923 5923 5925 5926 5926 5925 5924 5924 5923 5922 5921 5920 5919 5920 5920 5921 5921 5922 5923 5923 5924 5925 5926 5927 5928 5928 5928 5928 5929 5929 5929 5929 5929 5930 5931 5931 5931 5931 5931 5931 5932 5932 5932 5933 5933 5934
5916 5917 5917 5917 5917 5918 5918 5919 5920 5920 5920 5921 5921 5921 5921 5920 5921 5921 5922 5922 5923 5924 5923 5923 5923 5923 5923 5923 5922 5923 5924 5926 5926 5927 5926 5926 5925 5924 5923 5924 5926 5928 5929 5928 5926 5925 5925 5924 5923 5922 5922 5921 5921 5922 5923 5923 5924 5925 5926 5926 5928 5928 5929 5930 5930 5929 5930 5930 5930 5930 5930 5931 5932 5932 5933 5933 5933 5933 5933 5934 5934 5934 5935 5936 5936
5917 5918 5918 5919 5919 5919 5920 5920 5921 5921 5921 5922 5922 5923 5923 5922 5923 5923 5922 5923 5924 5925 5926 5925 5925 5924 5924 5924 5924 5924 5925 5926 5926 5926 5928 5928 5928 5927 5926 5927 5929 5929 5929 5928 5927 5926 5925 5925 5924 5924 5924 5923 5923 5924 5925 5925 5926 5927 5928 5929 5930 5930 5931 5931 5931 5930 5931 5931 5932 5932 5932 5933 5934 5934 5934 5935 5935 5935 5935 5936 5936 5937 5937 5938 5939
5919 5919 5919 5920 5920 5921 5921 5922 5922 5922 5922 5922 5923 5924 5924 5924 5925 5924 5923 5923 5923 5925 5926 5926 5926 5926 5926 5926 5926 5925 5925 5927 5927 5929 5931 5931 5931 5931 5930 5930 5929 5929 5928 5927 5927 5926 5926 5926 5925 5926 5925 5925 5925 5925 5926 5927 5928 5929 5930 5930 5931 5932 5932 5932 5932 5932 5932 5933 5933 5934 5934 5935 5935 5936 5936 5937 5937 5937 5938 5938 5939 5939 5940 5941 5941
5920 5920 5920 5921 5921 5922 5923 5923 5923 5923 5922 5922 5923 5924 5924 5925 5926 5926 5925 5925 5925 5925 5925 5926 5927 5928 5928 5929 5929 5928 5927 5928 5930 5932 5933 5932 5931 5930 5930 5929 5929 5929 5928 5928 5927 5927 5927 5926 5927 5927 5927 5927 5927 5927 5928 5929 5930 5930 5931 5932 5932 5933 5933 5933 5933 5933 5934 5935 5935 5936 5936 5937 5937 5938 5938 5939 5939 5939 5940 5940 5941 5942 5943 5943 5943
5921 5921 5921 5922 5922 5923 5924 5924 5924 5924 5924 5923 5923 5924 5924 5924 5925 5926 5925 5927 5927 5927 5927 5927 5928 5929 5930 5930 5929 5930 5929 5928 5930 5931 5931 5930 5929 5928 5928 5928 5929 5929 5929 5928 5928 5928 5928 5928 5929 5929 5929 5929 5929 5929 5930 5931 5932 5932 5933 5933 5934 5934 5934 5934 5935 5935 5936 5936 5937 5938 5939 5939 5940 5940 5940 5941 5941 5942 5942 5943 5944 5944 5945 5945 5945
5921 5922 5922 5922 5923 5924 5925 5925 5925 5925 5925 5925 5925 5925 5925 5926 5926 5926 5926 5927 5928 5928 5929 5928 5928 5929 5930 5930 5929 5930 5929 5929 5929 5930 5930 5930 5930 5930 5929 5929 5930 5930 5929 5929 5929 5929 5930 5931 5931 5931 5931 5931 5931 5931 5932 5933 5933 5934 5934 5934 5935 5935 5935 5936 5937 5937 5938 5938 5939 5940 5941 5941 5942 5942 5942 5943 5943 5944 5944 5945 5946 5947 5947 5947 5947
5922 5923 5923 5923 5924 5925 5926 5926 5927 5927 5927 5927 5928 5927 5928 5928 5928 5928 5928 5928 5928 5929 5930 5930 5930 5930 5930 5931 5931 5931 5931 5930 5930 5931 5931 5932 5932 5932 5933 5933 5933 5933 5932 5932 5932 5932 5933 5933 5933 5933 5933 5932 5932 5932 5933 5934 5934 5935 5935 5936 5936 5937 5937 5938 5939 5940 5940 5941 5941 5942 5942 5943 5944 5944 5944 5945 5945 5946 5947 5947 5948 5948 5949 5949 5949
5922 5923 5924 5924 5925 5926 5926 5927 5928 5929 5929 5929 5930 5930 5930 5930 5930 5930 5930 5930 5930 5931 5931 5931 5932 5932 5932 5933 5933 5933 5933 5932 5932 5932 5932 5932 5933 5933 5934 5935 5934 5934 5934 5934 5935 5936 5937 5936 5935 5936 5935 5934 5934 5935 5935 5936 5936 5937 5937 5938 5938 5939 5940 5940 5941 5942 5943 5943 5943 5944 5944 5945 5946 5946 5947 5947 5948 5948 5949 5950 5950 5950 5950 5950 5950
5923 5924 5924 5925 5926 5927 5927 5928 5929 5930 5930 5931 5931 5932 5932 5932 5932 5932 5932 5932 5932 5932 5933 5933 5934 5934 5935 5935 5935 5935 5935 5935 5935 5935 5934 5934 5934 5934 5935 5935 5935 5935 5935 5935 5935 5936 5938 5938 5938 5939 5938 5938 5938 5938 5938 5939 5939 5939 5940 5940 5941 5941 5942 5942 5943 5944 5945 5945 5945 5946 5947 5947 5948 5948 5949 5950 5950 5951 5951 5952 5952 5952 5952 5952 5952
5924 5924 5925 5926 5927 5928 5928 5929 5930 5931 5932 5932 5933 5933 5934 5934 5934 5934 5934 5934 5934 5934 5935 5935 5936 5936 5937 5937 5937 5937 5937 5937 5937 5937 5937 5937 5937 5938 5938 5937 5937 5937 5937 5938 5937 5937 5938 5939 5939 5941 5941 5941 5941 5941 5941 5941 5941 5942 5942 5943 5943 5943 5944 5944 5945 5946 5947 5947 5947 5948 5949 5949 5950 5951 5951 5952 5952 5953 5953 5953 5953 5953 5953 5954 5954
5925 5925 5926 5927 5928 5928 5929 5930 5931 5931 5932 5933 5934 5934 5935 5935 5935 5936 5936 5936 5936 5936 5937 5937 5937 5938 5939 5939 5939 5940 5940 5940 5939 5939 5940 5940 5940 5940 5940 5940 5940 5940 5940 5940 5940 5940 5940 5940 5942 5943 5943 5944 5943 5943 5944 5943 5943 5944 5944 5945 5945 5946 5946 5947 5947 5948 5948 5949 5949 5950 5951 5951 5952 5953 5953 5954 5954 5954 5955 5955 5955 5955 5955 5955 5955
5926 5926 5927 5927 5928 5929 5930 5931 5932 5932 5933 5934 5935 5936 5936 5936 5937 5937 5937 5938 5938 5938 5938 5939 5939 5940 5940 5941 5941 5942 5942 5942 5942 5942 5942 5942 5942 5942 5942 5942 5942 5942 5942 5941 5942 5942 5942 5943 5944 5945 5945 5946 5945 5945 5945 5945 5945 5946 5946 5947 5947 5947 5948 5949 5949 5950 5950 5951 5951 5952 5952 5953 5954 5954 5955 5955 5956 5956 5956 5956 5956 5956 5957 5957 5957
5926 5927 5928 5928 5929 5930 5931 5932 5932 5933 5933 5935 5936 5936 5937 5938 5938 5938 5939 5939 5940 5940 5940 5940 5941 5941 5942 5942 5943 5943 5943 5944 5944 5944 5944 5944 5944 5944 5944 5944 5944 5944 5944 5944 5944 5944 5944 5945 5946 5946 5947 5947 5947 5947 5947 5947 5947 5948 5948 5949 5949 5949 5950 5950 5951 5951 5952 5952 5953 5953 5954 5955 5955 5956 5957 5957 5957 5957 5957 5958 5958 5958 5958 5958 5958
5927 5928 5928 5929 5930 5931 5932 5933 5933 5934 5934 5935 5936 5937 5938 5939 5939 5939 5940 5941 5941 5941 5941 5942 5942 5942 5943 5943 5944 5945 5945 5945 5945 5945 5946 5946 5946 5946 5946 5946 5946 5946 5946 5946 5946 5946 5947 5947 5947 5948 5948 5949 5949 5949 5949 5949 5949 5950 5950 5950 5951 5951 5952 5952 5953 5953 5954 5954 5954 5955 5956 5956 5957 5958 5958 5959 5959 5959 5959 5959 5959 5959 5959 5959 5959
5927 5928 5929 5930 5930 5931 5932 5933 5934 5935 5935 5936 5937 5938 5939 5940 5940 5941 5941 5942 5942 5943 5943 5943 5943 5943 5944 5944 5945 5946 5946 5947 5947 5947 5947 5947 5948 5947 5947 5948 5947 5947 5948 5948 5948 5948 5948 5949 5950 5949 5950 5950 5951 5951 5951 5951 5951 5952 5952 5952 5953 5953 5953 5954 5954 5955 5955 5955 5956 5956 5957 5958 5959 5959 5960 5960 5960 5961 5961 5961 5961 5961 5961 5960 5960
5927 5928 5929 5930 5931 5932 5933 5934 5935 5935 5936 5936 5937 5938 5939 5940 5941 5942 5942 5943 5943 5944 5944 5944 5945 5945 5945 5945 5946 5947 5947 5948 5948 5948 5948 5948 5949 5949 5949 5949 5949 5949 5949 5950 5950 5950 5950 5950 5951 5951 5951 5952 5953 5953 5953 5953 5953 5953 5954 5954 5955 5955 5955 5955 5956 5956 5957 5957 5958 5958 5959 5960 5960 5961 5961 5962 5962 5962 5962 5962 5962 5962 5962 5962 5962
5927 5928 5930 5931 5932 5933 5934 5935 5935 5936 5937 5937 5938 5939 5940 5941 5941 5942 5943 5944 5944 5945 5945 5946 5946 5946 5946 5947 5947 5948 5948 5949 5949 5949 5950 5950 5950 5950 5950 5950 5950 5951 5951 5951 5951 5952 5952 5952 5952 5952 5953 5954 5954 5955 5955 5955 5955 5955 5955 5956 5956 5957 5957 5957 5957 5958 5958 5959 5959 5960 5961 5961 5962 5962 5963 5963 5963 5963 5963 5963 5963 5963 5963 5963 5963
5927 5928 5929 5931 5932 5933 5934 5935 5936 5937 5937 5938 5938 5939 5940 5941 5942 5943 5944 5944 5945 5946 5946 5947 5947 5948 5948 5948 5948 5949 5949 5950 5950 5951 5951 5951 5951 5952 5952 5952 5952 5952 5952 5953 5953 5954 5954 5954 5954 5955 5955 5955 5956 5956 5956 5957 5957 5957 5957 5958 5958 5959 5959 5959 5959 5960 5961 5961 5961 5962 5962 5963 5963 5964 5964 5964 5964 5964 5965 5965 5965 5965 5965 5964 5964
5927 5928 5929 5930 5932 5933 5934 5935 5936 5937 5937 5938 5939 5939 5940 5941 5942 5943 5944 5945 5946 5946 5947 5947 5948 5949 5949 5949 5950 5950 5950 5951 5951 5952 5952 5952 5953 5953 5953 5953 5953 5953 5954 5954 5955 5955 5955 5956 5956 5956 5957 5957 5957 5958 5958 5958 5958 5959 5959 5959 5960 5960 5960 5961 5961 5962 5962 5963 5963 5963 5963 5964 5964 5965 5965 5965 5966 5966 5966 5966 5966 5966 5966 5966 5965
5926 5927 5929 5930 5931 5932 5934 5935 5936 5937 5938 5938 5939 5940 5941 5942 5942 5943 5944 5945 5946 5947 5947 5948 5949 5949 5950 5950 5951 5951 5951 5952 5952 5953 5953 5954 5954 5954 5954 5954 5955 5955 5955 5956 5956 5956 5957 5957 5957 5958 5958 5959 5959 5959 5960 5960 5960 5960 5961 5961 5962 5962 5962 5963 5963 5963 5963 5964 5964 5965 5965 5965 5965 5965 5966 5966 5967 5967 5967 5967 5967 5967 5967 5967 5967
5926 5927 5928 5929 5931 5932 5933 5935 5936 5937 5938 5938 5939 5940 5941 5942 5943 5944 5944 5945 5947 5947 5948 5949 5949 5950 5951 5951 5952 5952 5952 5953 5953 5953 5954 5954 5955 5955 5955 5956 5956 5956 5957 5957 5958 5958 5958 5958 5959 5959 5960 5960 5960 5961 5961 5961 5962 5962 5962 5962 5963 5963 5964 5964 5964 5964 5964 5965 5966 5966 5966 5966 5966 5966 5967 5967 5968 5968 5968 5968 5968 5968 5968 5969 5969
5925 5926 5928 5929 5930 5932 5933 5934 5936 5937 5938 5939 5940 5941 5942 5943 5943 5944 5945 5946 5947 5948 5949 5949 5950 5951 5951 5952 5952 5953 5953 5954 5954 5954 5954 5955 5956 5956 5956 5957 5957 5958 5958 5959 5959 5960 5960 5960 5960 5960 5961 5961 5962 5962 5963 5963 5963 5963 5963 5964 5964 5964 5964 5965 5965 5965 5965 5966 5967 5967 5967 5967 5967 5967 5968 5968 5969 5969 5969 5970 5970 5970 5970 5970 5970
5925 5926 5927 5928 5930 5931 5932 5934 5935 5937 5938 5939 5940 5941 5942 5943 5944 5945 5946 5947 5947 5948 5949 5950 5950 5951 5952 5952 5953 5953 5954 5954 5954 5955 5955 5956 5956 5957 5957 5958 5958 5959 5960 5960 5961 5961 5961 5961 5961 5961 5962 5962 5963 5963 5964 5964 5964 5964 5964 5965 5965 5965 5965 5965 5965 5966 5966 5967 5968 5968 5968 5968 5968 5968 5969 5969 5970 5970 5971 5971 5971 5971 5972 5972 5972
5925 5926 5927 5928 5929 5930 5932 5933 5935 5937 5938 5940 5941 5942 5943 5943 5944 5945 5946 5947 5948 5949 5950 5951 5951 5951 5952 5953 5953 5954 5954 5955 5955 5955 5956 5956 5957 5958 5958 5959 5959 5960 5960 5961 5961 5962 5962 5962 5962 5962 5962 5963 5963 5964 5965 5965 5965 5965 5965 5966 5966 5966 5966 5966 5966 5967 5967 5968 5968 5969 5969 5969 5969 5969 5970 5970 5971 5971 5972 5972 5973 5973 5973 5973 5973
5924 5925 5926 5927 5928 5930 5931 5933 5934 5936 5938 5940 5941 5942 5943 5943 5944 5945 5946 5947 5948 5949 5950 5951 5951 5951 5952 5953 5954 5954 5955 5955 5956 5956 5956 5957 5958 5958 5959 5959 5960 5960 5961 5962 5962 5963 5963 5963 5963 5963 5963 5963 5964 5965 5965 5965 5966 5966 5966 5967 5967 5967 5967 5967 5967 5968 5968 5969 5969 5970 5970 5970 5970 5970 5971 5972 5972 5972 5973 5974 5974 5974 5975 5975 5974
5924 5925 5926 5927 5928 5929 5931 5932 5934 5936 5938 5939 5941 5941 5942 5943 5944 5945 5946 5947 5948 5949 5950 5951 5951 5952 5952 5953 5954 5954 5955 5956 5956 5957 5957 5957 5958 5959 5959 5960 5960 5961 5962 5962 5963 5963 5964 5964 5964 5964 5964 5964 5965 5965 5965 5966 5966 5967 5967 5968 5968 5968 5968 5969 5969 5969 5969 5970 5970 5971 5971 5971 5971 5971 5972 5973 5973 5974 5974 5975 5975 5975 5976 5976 5976
5923 5924 5926 5927 5928 5929 5931 5932 5934 5936 5937 5939 5940 5941 5942 5943 5944 5945 5946 5948 5948 5949 5950 5950 5951 5952 5953 5953 5954 5955 5955 5956 5957 5957 5957 5958 5959 5959 5960 5960 5961 5961 5962 5963 5964 5964 5964 5965 5965 5966 5965 5965 5965 5966 5966 5966 5967 5967 5968 5968 5969 5969 5969 5970 5970 5970 5971 5971 5971 5972 5972 5972 5973 5973 5973 5974 5974 5975 5975 5976 5976 5977 5977 5977 5977
5923 5924 5925 5926 5928 5929 5930 5932 5933 5935 5937 5938 5939 5940 5942 5943 5944 5945 5947 5948 5948 5949 5950 5950 5951 5952 5952 5953 5954 5955 5956 5957 5957 5958 5958 5958 5959 5960 5960 5961 5961 5962 5963 5963 5964 5964 5965 5965 5966 5966 5966 5966 5966 5967 5967 5967 5967 5968 5968 5969 5969 5970 5970 5971 5971 5971 5972 5972 5972 5973 5973 5974 5974 5974 5974 5975 5975 5976 5976 5977 5977 5978 5978 5978 5978
5922 5923 5924 5925 5927 5928 5930 5931 5933 5935 5936 5937 5938 5940 5941 5943 5944 5945 5946 5948 5948 5949 5949 5950 5951 5952 5952 5953 5954 5955 5956 5957 5958 5958 5958 5959 5959 5960 5961 5961 5962 5962 5963 5964 5964 5964 5965 5966 5966 5966 5967 5967 5967 5967 5967 5967 5967 5968 5969 5969 5970 5970 5971 5971 5972 5972 5973 5973 5973 5974 5974 5975 5975 5975 5975 5976 5976 5977 5977 5978 5979 5979 5979 5979 5979
5921 5922 5923 5924 5926 5927 5929 5931 5932 5934 5935 5937 5938 5939 5941 5942 5944 5945 5946 5947 5948 5948 5949 5950 5950 5951 5952 5953 5954 5955 5956 5957 5958 5959 5959 5960 5960 5961 5961 5962 5962 5963 5963 5964 5964 5965 5965 5966 5966 5967 5967 5967 5967 5968 5968 5968 5968 5969 5969 5970 5970 5971 5971 5972 5972 5973 5973 5974 5974 5975 5975 5975 5976 5976 5976 5976 5977 5977 5978 5979 5980 5980 5980 5980 5980
5919 5921 5922 5923 5925 5926 5928 5929 5931 5933 5934 5936 5937 5938 5940 5942 5943 5945 5946 5947 5947 5948 5949 5950 5950 5951 5952 5953 5954 5955 5956 5957 5958 5959 5960 5960 5961 5961 5961 5962 5963 5963 5964 5964 5964 5965 5966 5966 5967 5967 5967 5968 5968 5968 5968 5968 5969 5969 5970 5970 5971 5971 5972 5972 5973 5973 5974 5974 5975 5975 5976 5976 5977 5977 5977 5977 5978 5978 5979 5980 5980 5981 5981 5981 5981